Location: North Runcton
(52.7000°N, 0.4333°E)
Time: 19:37:40
(UTC+00:00)

Spot 4 - Pass Details

Date: 19 May 2025
Orbit: 699 x 715 km, 98.3° (Epoch: 23 June)

Event Time Altitude Azimuth Distance (km) Brightness Sun altitude
Exits shadow 22:56:51 28° 158° (SSE) 1,304 4.6 -16.2°
Maximum altitude 22:59:23 83° 73° (ENE) 716 3.8 -16.3°
Drops below altitude 10° 23:04:11 10° 346° (NNW) 2,189 7.7 -16.5°
Sets 23:06:28 0° 346° (NNW) 3,115 9.0 -16.6°
